Wind_Speed
25 25 24 24 24 24 25 25 25 26 27 28 28 29 29 30 30 30 31 31 31 31 31 31 32 32 32 32 32 33 33 33 32 32 32 33 32 32
23 23 23 22 21 22 23 23 24 24 26 27 28 28 28 29 30 31 31 32 32 31 31 31 32 32 32 32 32 32 33 33 33 32 32 32 33 33
21 22 22 23 22 22 23 23 24 25 25 26 27 28 28 29 30 30 31 32 32 32 32 32 33 33 33 33 33 32 32 32 32 32 32 32 32 33
19 20 20 22 22 22 23 23 24 25 25 25 25 27 27 28 29 30 30 31 32 32 32 33 33 34 33 34 34 33 33 33 32 32 33 33 33 32
18 18 19 20 20 20 21 22 23 24 24 24 24 25 26 27 28 29 29 30 31 32 32 32 33 34 34 34 34 34 34 33 33 33 33 34 34 33
17 18 18 18 19 19 19 20 21 22 23 23 24 24 25 25 26 28 28 29 29 30 32 32 33 33 34 34 34 34 34 34 34 34 34 34 34 34
17 18 18 18 18 19 20 20 22 23 23 24 24 24 25 26 27 28 29 29 29 29 30 31 32 32 33 34 34 34 35 35 36 35 35 35 34 34
17 18 18 19 19 19 20 21 22 22 22 23 24 25 26 27 27 28 29 29 30 31 31 31 31 32 33 34 35 35 35 35 36 35 35 34 34 34
17 17 18 18 18 18 18 19 20 20 21 22 23 24 25 26 26 27 28 28 30 31 32 31 31 31 32 33 34 34 34 34 34 34 34 34 34 34
16 17 17 17 16 17 18 18 19 18 19 20 21 22 24 25 25 26 26 27 28 28 28 29 29 30 32 32 33 33 33 33 33 33 33 34 34 34
15 15 15 15 15 15 16 16 16 17 17 18 19 20 21 22 22 23 24 25 25 26 28 28 28 29 30 31 32 32 32 32 32 32 33 33 33 33
15 15 15 15 14 14 14 15 15 16 16 16 17 18 19 19 20 21 22 23 24 25 26 27 28 28 28 29 30 30 31 31 32 32 33 33 33 33
14 15 14 14 13 13 13 14 14 15 15 15 16 17 18 18 19 20 21 22 24 24 25 26 26 27 27 27 28 28 28 29 30 31 32 32 33 32
14 14 14 14 13 14 14 14 14 14 15 15 16 16 16 17 18 19 20 21 22 22 22 23 23 24 26 26 26 27 27 28 28 29 30 31 32 32
14 14 14 13 13 13 14 14 14 15 15 16 16 16 17 17 18 19 19 20 20 21 21 22 22 23 24 25 26 26 26 26 27 28 28 29 30 31
15 14 14 13 13 14 14 14 15 15 16 16 16 17 17 17 18 18 18 19 19 20 20 21 21 22 23 24 25 26 26 26 26 26 27 28 29 30
15 14 13 13 14 14 14 15 15 16 16 16 16 16 17 17 18 18 18 18 19 19 19 19 20 21 22 23 23 24 25 25 26 27 27 27 28 29
15 15 15 15 15 15 15 15 15 16 16 17 17 18 18 19 19 19 18 18 19 19 19 20 21 21 22 23 23 24 25 26 26 26 27 27 28 29
15 15 15 16 15 16 16 16 17 17 17 18 18 18 18 19 19 19 19 19 20 20 20 21 22 23 23 23 24 25 26 26 26 27 27 28 28 29
15 16 16 17 17 17 17 18 18 18 18 17 17 18 18 19 19 19 19 19 20 20 21 21 21 22 22 24 25 26 27 28 28 28 29 29 29 30
17 17 17 18 18 18 18 18 18 19 18 18 18 18 19 19 19 19 19 19 20 20 21 21 22 22 23 24 26 26 27 28 29 30 30 30 30 31
18 18 18 18 18 19 19 19 19 19 20 19 19 19 19 19 19 19 19 19 20 20 20 21 22 22 22 24 25 26 27 28 29 30 31 32 32 32
19 19 19 19 19 19 20 20 20 20 20 19 19 19 19 19 20 20 19 19 19 19 20 21 22 23 23 24 25 26 27 28 29 29 31 31 31 32
Wind_Direction
265 265 264 265 267 266 262 260 261 261 262 263 261 261 260 258 256 256 256 256 255 253 252 252 251 251 250 251 251 251 252 253 253 252 253 252 253 255
267 265 265 266 266 265 263 261 261 261 262 264 263 262 260 259 258 257 256 256 255 254 253 252 251 251 252 252 253 253 254 254 253 252 253 252 253 256
269 267 264 264 265 264 264 264 264 262 264 265 263 262 260 260 258 258 257 256 255 254 253 252 252 252 252 253 254 253 252 251 252 252 252 252 254 254
274 271 269 268 268 267 266 266 265 264 265 264 263 261 261 260 259 258 259 258 255 254 253 253 251 251 251 253 253 252 251 251 252 252 253 253 254 255
279 277 276 274 273 271 270 267 265 265 265 264 263 262 261 260 259 258 259 260 257 254 253 253 251 251 251 251 252 252 252 251 252 252 253 252 253 256
282 281 279 278 276 274 273 270 268 266 265 264 263 263 263 261 260 260 261 262 259 257 255 253 251 252 252 252 252 253 252 252 252 252 252 253 253 255
286 285 283 282 279 278 277 275 273 270 267 266 266 265 264 264 264 263 262 262 259 258 257 255 254 254 253 252 251 253 253 252 252 251 251 251 252 253
290 287 285 285 280 280 280 278 276 272 269 267 265 266 265 265 265 263 262 261 258 257 256 254 254 254 254 252 251 252 253 252 251 250 249 250 253 253
292 290 289 290 284 283 282 280 277 274 270 267 267 268 268 268 266 265 263 262 260 258 256 254 253 254 252 252 251 252 253 252 251 250 250 251 252 253
297 295 293 291 287 284 283 283 281 279 275 273 272 271 270 269 269 267 266 265 263 261 258 256 254 254 254 252 252 252 253 251 250 249 250 250 251 253
301 299 299 293 290 288 287 286 285 284 281 278 277 276 276 274 271 269 267 266 264 262 260 258 255 254 254 253 253 253 253 252 251 250 250 250 251 252
305 304 303 300 295 294 294 293 292 288 285 282 282 280 280 277 274 272 269 267 265 263 262 260 258 256 254 255 255 255 255 253 251 250 250 250 251 251
314 313 308 303 298 296 296 296 296 294 289 288 287 285 284 281 279 276 272 269 267 266 264 261 258 257 255 256 256 256 256 255 254 251 250 249 249 249
320 316 314 310 302 300 298 297 295 295 295 293 289 287 286 284 282 280 277 273 269 266 264 260 258 256 255 255 256 257 257 258 256 253 251 250 249 249
322 318 316 312 305 303 304 303 300 298 297 296 293 290 288 287 286 284 280 276 271 268 264 260 259 258 257 256 256 257 258 257 255 253 252 251 251 251
324 322 317 312 309 308 307 306 303 302 300 298 296 293 290 288 288 287 284 280 274 268 265 263 261 260 258 256 256 256 256 255 254 254 253 253 252 253
326 323 319 317 316 312 310 309 305 303 301 301 300 297 294 292 290 289 286 282 277 271 267 265 262 261 259 257 256 255 255 254 254 254 254 254 254 256
327 325 322 319 319 317 316 314 310 306 303 302 299 298 298 296 292 288 287 285 280 275 271 268 265 262 261 259 258 257 257 256 255 255 256 255 256 257
327 325 323 322 320 319 317 317 313 309 307 304 301 300 299 298 295 291 287 284 282 276 272 272 270 266 264 262 262 262 261 259 257 256 258 258 258 259
331 327 324 322 320 318 316 315 312 310 309 308 305 303 301 300 297 292 289 287 285 280 275 274 271 270 267 266 266 266 265 263 260 259 259 260 260 260
329 327 324 322 320 318 316 314 312 311 310 309 307 306 304 301 298 295 292 288 286 283 279 276 273 271 270 269 269 268 267 265 263 262 262 262 262 263
327 326 324 321 319 318 316 314 311 310 311 310 306 304 303 300 297 295 294 291 288 286 283 279 276 275 273 273 272 271 269 268 267 265 264 264 265 265
329 327 326 324 322 319 316 314 311 309 309 309 307 304 302 302 300 297 295 294 291 288 285 282 280 278 276 275 274 272 272 271 270 268 267 266 268 268
Height
5731 5731 5730 5730 5730 5730 5730 5731 5732 5732 5732 5732 5732 5733 5734 5736 5737 5738 5740 5741 5742 5744 5746 5748 5750 5751 5754 5756 5758 5759 5761 5763 5764 5766 5768 5769 5771 5772
5725 5724 5724 5723 5723 5724 5724 5724 5724 5725 5725 5725 5725 5725 5726 5728 5729 5730 5731 5733 5735 5736 5738 5740 5742 5744 5746 5748 5749 5751 5753 5755 5756 5758 5760 5761 5763 5764
5719 5718 5718 5718 5717 5717 5717 5717 5718 5718 5718 5718 5718 5718 5719 5720 5721 5722 5723 5724 5726 5728 5730 5732 5734 5735 5737 5739 5741 5743 5744 5746 5748 5749 5751 5753 5754 5756
5713 5713 5712 5711 5711 5711 5710 5710 5711 5711 5711 5711 5711 5711 5712 5712 5713 5714 5715 5716 5717 5719 5721 5723 5725 5727 5729 5731 5732 5734 5736 5737 5739 5741 5742 5744 5746 5747
5708 5707 5706 5706 5705 5704 5703 5703 5703 5704 5704 5704 5704 5704 5704 5705 5705 5706 5707 5707 5708 5710 5712 5714 5715 5717 5719 5722 5723 5725 5727 5729 5730 5732 5733 5735 5737 5738
5703 5702 5701 5700 5699 5699 5698 5697 5697 5697 5697 5697 5697 5697 5697 5697 5698 5699 5699 5699 5700 5701 5703 5704 5706 5708 5710 5712 5714 5716 5717 5719 5721 5722 5724 5726 5727 5729
5698 5697 5696 5695 5694 5693 5692 5691 5691 5690 5690 5690 5690 5690 5690 5690 5691 5691 5691 5691 5692 5693 5694 5696 5697 5699 5700 5702 5704 5706 5708 5709 5711 5713 5715 5716 5718 5720
5694 5692 5691 5690 5688 5687 5686 5686 5685 5684 5684 5683 5683 5683 5683 5683 5683 5682 5683 5683 5684 5685 5686 5687 5688 5689 5691 5693 5694 5696 5698 5699 5701 5703 5705 5707 5709 5711
5689 5687 5686 5684 5683 5682 5681 5680 5679 5678 5677 5677 5677 5676 5676 5675 5675 5675 5675 5675 5676 5676 5677 5678 5679 5680 5682 5683 5685 5687 5688 5690 5692 5694 5696 5698 5700 5701
5685 5683 5681 5679 5678 5676 5675 5674 5673 5672 5671 5671 5670 5669 5669 5668 5667 5667 5667 5667 5667 5667 5668 5669 5670 5671 5673 5674 5676 5677 5679 5681 5682 5684 5686 5688 5690 5692
5681 5679 5677 5675 5673 5672 5670 5669 5668 5666 5665 5665 5664 5663 5662 5661 5660 5660 5660 5659 5660 5660 5660 5660 5661 5662 5664 5665 5666 5668 5670 5671 5673 5675 5677 5679 5681 5682
5677 5675 5673 5671 5669 5667 5666 5665 5663 5661 5660 5659 5658 5657 5655 5654 5654 5653 5653 5652 5652 5652 5652 5653 5653 5654 5655 5656 5658 5659 5660 5662 5664 5665 5667 5669 5671 5673
5673 5671 5669 5667 5665 5663 5662 5660 5659 5657 5655 5653 5652 5651 5650 5649 5647 5647 5646 5645 5645 5645 5644 5644 5645 5645 5647 5648 5649 5650 5652 5653 5654 5656 5658 5660 5662 5663
5670 5667 5665 5663 5661 5659 5658 5656 5654 5652 5650 5649 5647 5646 5644 5643 5642 5640 5639 5638 5637 5637 5637 5637 5637 5638 5639 5640 5641 5642 5643 5644 5645 5647 5648 5650 5652 5654
5667 5665 5662 5660 5657 5655 5653 5651 5649 5648 5646 5644 5642 5641 5639 5637 5636 5634 5632 5631 5630 5630 5629 5630 5630 5631 5632 5633 5634 5634 5635 5636 5637 5638 5640 5641 5643 5645
5664 5661 5659 5656 5654 5652 5650 5648 5646 5643 5641 5640 5638 5636 5634 5632 5630 5628 5627 5625 5624 5623 5623 5623 5623 5624 5624 5625 5626 5627 5627 5628 5629 5630 5631 5632 5634 5636
5661 5659 5656 5653 5651 5649 5646 5644 5642 5640 5637 5635 5633 5631 5629 5627 5625 5623 5621 5619 5618 5617 5617 5617 5617 5617 5617 5618 5618 5619 5620 5621 5622 5622 5623 5624 5626 5627
5659 5656 5653 5650 5648 5645 5642 5640 5637 5635 5633 5631 5628 5626 5624 5621 5619 5617 5615 5614 5612 5611 5610 5610 5610 5610 5610 5611 5612 5612 5613 5613 5614 5614 5615 5616 5617 5618
5656 5653 5650 5647 5644 5642 5639 5636 5633 5631 5628 5626 5623 5621 5618 5616 5613 5611 5609 5608 5606 5605 5604 5603 5603 5603 5603 5604 5604 5604 5605 5605 5606 5606 5607 5608 5609 5609
5653 5650 5647 5644 5641 5638 5635 5632 5629 5626 5623 5620 5618 5615 5613 5610 5608 5605 5604 5602 5600 5598 5597 5597 5596 5596 5596 5596 5596 5596 5596 5597 5597 5598 5598 5599 5599 5600
5650 5647 5643 5640 5637 5633 5630 5627 5624 5621 5618 5615 5612 5610 5607 5605 5602 5600 5598 5596 5594 5592 5591 5590 5589 5589 5588 5588 5588 5588 5588 5588 5588 5588 5589 5589 5589 5590
5646 5643 5639 5635 5632 5629 5625 5622 5619 5616 5612 5609 5607 5604 5602 5599 5597 5594 5592 5590 5588 5586 5584 5583 5582 5582 5581 5580 5580 5579 5579 5579 5579 5578 5578 5579 5578 5579
5642 5638 5635 5631 5627 5624 5620 5617 5613 5610 5607 5604 5601 5599 5596 5593 5591 5588 5586 5584 5582 5580 5578 5576 5575 5574 5573 5572 5571 5570 5570 5569 5568 5568 5568 5568 5568 5568